www.pogodaiklimat.ru

ПОГОДА в Монтагю, CA

  • Прогноз погоды в Монтагю
  • Монитор погоды в Монтагю
  • Климат в Монтагю

АРХИВ ПОГОДЫ в Монтагю

Время (UTC), дата Ветер
(напр.,м/с)
 
Видим.   Явления Облачность Т
(С)
Тd
(С)
f
(%)
Тe
(С)
Тes
(С)
Комфортность

P
(гПа)

Po
(гПа)
Тmin
(С)
Tmax
(С)
R
(мм)
SD
(см)
11:53 24.05   16 км    ясно  +5.6  +3.3  85  +5  +5    1016.6  922.9         
12:53 24.05 В  14 км    ясно  +8.3  +6.1  86  +7  +7    1016.9  923.2         
13:53 24.05 СВ  16 км    ясно  +12.2  +7.8  74  +11  +12    1017.0  923.5         
14:53 24.05   16 км    ясно  +15.0  +7.8  62  +15  +19    1016.9  923.5         
15:53 24.05 нст  16 км    8/0 3600 м
[средняя] 
+16.7  +7.8  56  +17  +19    1017.1  923.5         
16:53 24.05   16 км    10/0 3000 м
[средняя] 
+17.8  +7.2  50  +18  +22    1016.6  923.2  +4.4  +18.3     
17:53 24.05   16 км    ясно  +20.0  +7.2  43  +21  +41  комфорт  1016.2  922.9         
18:53 24.05 СЗ  16 км    2/2 1500 м  +21.1  +6.1  38  +22  +37  комфорт  1015.3  921.9         
19:53 24.05 нст  16 км    ясно  +22.2  +5.0  33  +23  +44  комфорт  1014.2  921.0         
20:53 24.05 нст  16 км    ясно  +22.8  +5.0  31  +23  +43  комфорт  1013.3  919.8         
21:53 24.05 С  4
{8} 
16 км    5/0 2400 м
[средняя] 
+25.0  +3.9  25  +24  +30  комфорт  1012.2  919.2         
22:53 24.05 С  16 км    5/0 3000 м
[средняя] 
+23.3  +1.7  24  +23  +25  комфорт  1012.1  918.9  +17.8  +25.6     
23:53 24.05 СЗ  16 км    2/0 2400 м
[средняя] 
+23.3  +2.2  25  +23  +27  комфорт  1011.4  918.3         
00:53 25.05 СЗ  4
{9} 
16 км    2/0 2700 м
[средняя] 
+22.2  +1.1  25  +22  +24  комфорт  1011.0  918.3         
01:53 25.05 С  16 км    8/0 2550 м
[средняя] 
+17.8  +5.6  45  +17  +17    1011.2  918.3         
02:53 25.05 С  16 км    2/0 2550 м
[средняя] 
+14.4  +3.9  49  +13  +13    1012.0  918.9         
03:53 25.05 СВ  16 км    ясно  +12.8  +2.2  48  +10  +10    1013.5  920.1         
04:53 25.05 С  16 км    ясно  +10.6  +2.8  58  +7  +7    1013.9  920.4  +10.6  +24.4     
05:53 25.05 С  9
{12} 
16 км    5/5 1650 м  +9.4  +2.2  61  +5  +5    1014.4  921.0         
06:53 25.05 С  16 км    ясно  +7.8  +1.1  63  +3  +3    1014.7  921.0         
07:53 25.05 СВ  16 км    ясно  +6.1  +1.1  70  +2  +2    1015.0  921.3         
08:53 25.05 С  16 км    ясно  +3.9  +1.1  82  -2  -2    1015.4  921.6         
09:53 25.05 С  16 км    ясно  +2.8  0.0  82  -2  -2    1015.0  921.3         
10:53 25.05 С  16 км    ясно  +2.8  0.0  82  -2  -2    1014.8  921.0  +2.2  +10.6     
11:53 25.05 СВ  16 км    ясно  +1.7  -0.6  85  -3  -3    1015.2  921.3         
12:53 25.05   16 км    ясно  +3.3  +0.6  82  +2  +2    1015.3  921.3         
13:53 25.05 С  16 км    ясно  +8.3  +1.7  63  +6  +7    1015.3  921.6         
14:53 25.05   16 км    ясно  +10.0  +0.6  52  +10  +14    1014.8  920.7         
15:53 25.05   16 км    ясно  +12.2  +0.6  45  +12  +22    1014.3  920.4         
16:53 25.05 нст  16 км    ясно  +13.3  +1.7  45  +13  +25  опасность
простуды 
1013.4  919.5  +1.7  +13.3     
17:53 25.05   16 км    ясно  +14.4  +1.7  42  +14  +35  опасность
простуды 
1012.7  918.9         
18:53 25.05   16 км    ясно  +17.2  +0.6  33  +17  +42  опасность
простуды 
1011.7  918.3         
19:53 25.05 СВ  16 км    ясно  +18.3  -0.6  28  +19  +40  опасность
простуды 
1010.4  917.0         
20:53 25.05 С  16 км    ясно  +20.0  -0.6  25  +20  +36  опасность
простуды 
1009.3  916.1         
21:53 25.05 нст  16 км    ясно  +19.4  -2.2  23  +20  +33  опасность
простуды 
1008.6  915.2         
22:53 25.05 С  16 км    ясно  +17.2  +3.3  39  +16  +19    1008.2  914.9  +13.3  +20.0     
23:53 25.05 С  7
{10} 
16 км    8/0 3300 м
[средняя] 
+15.6  +2.8  42  +14  +15    1007.8  914.3         
00:53 26.05 С  16 км    10/8 1080 м
[средняя] 
+13.9  +4.4  53  +12  +12    1007.3  913.6         
01:53 26.05 С  16 км  слабый дождь  10/10 780 м  +10.0  +6.7  80  +7  +7    1007.6  914.0      0.3   
02:53 26.05 С  8 км  дождь, дымка  10/10 720 м  +7.2  +5.0  86  +2  +2    1008.2  914.6         
03:53 26.05 С  14 км  слабый дождь  10/10 960 м  +6.1  +4.4  89  +1  +1    1008.2  914.6         
04:13 26.05 С  14 км  слабый дождь  10/10 840 м  +6.1  +3.9  86  +1  +1      914.9         
04:31 26.05 С  16 км  слабый дождь  10/10 900 м  +6.1  +3.9  86  +2  +2      914.9         
04:53 26.05 С  16 км  слабый дождь  10/10 990 м  +6.1  +3.9  86  +2  +2    1008.3  914.9  +6.1  +16.7  8.1   
05:53 26.05 СВ  16 км  слабый дождь  10/10 1410 м  +5.6  +3.9  89  +3  +3    1007.5  914.0         
06:53 26.05 С  16 км    10/10 840 м  +6.1  +3.3  82  +4  +4    1006.6  913.3         
07:53 26.05 СВ  14 км  слабый дождь  10/10 660 м  +5.6  +3.3  85  +2  +2    1006.1  913.0      2.0   
08:53 26.05 С  14 км  слабый дождь  10/10 510 м  +4.4  +2.2  86  -1  -1    1005.4  912.4         

 

Местоположение метеостанции Siskiyou County Airport: широта 41.7814 долгота -122.4681 высота над уровнем моря 807 м.

В архиве по умолчанию представлена погода в Монтагю за последние 1-2 суток. Обновление информации о фактической погоде в базе происходит ежечасно! Архивные данные за месяц целиком и за предыдущие месяцы Вы можете получить, выбрав интересующий диапазон дат из раскрывающегося списка и нажав кнопку "Ввод!".

Внимание! Архив погоды МЕТАР в базе сайта хранится не более 60 дней. Нет смысла пытаться выбрать более раннюю дату.

Внимание! Время в таблицах - всемирное. Для получения местного времени необходимо прибавить поправку, которая в Монтагю равна -8 ч.

Ветер - указаны скорость ветра в м/с и направление, откуда дует ветер: С - северный, СВ - северо-восточный, В - восточный, ЮВ - юго-восточный, Ю - южный, ЮЗ - юго-западный, З - западный, СЗ - северо-западный.
Видимость - горизонтальная дальность видимости в метрах или километрах. При видимости от 1 до 10 км при отсутствии осадков обычно наблюдается дымка, при ухудшении видимости до 1 км и менее - туман. В сухую погоду видимость может ухудшаться дымом, пылью или мглою.
Атмосферные явления - указаны явления, наблюдавшиеся в указанный момент времени.
Облачность - указаны через наклонную черту верхняя и нижняя облачность в баллах и высота нижней границы облаков в метрах. Внимание: облачность, как и прочие метеорологические величины в США измеряются автоматическими метеостанциями. Указанные значения в баллах носят условный характер и показывают процент времени, в течение которого, в среднем, лазерный луч высотомера отражался от облаков обратно.
T - Температура воздуха - температура, измеренная на высоте 2 м над землей.
Td - Температура точки росы - температура, при понижении до которой содержащийся в воздухе водяной пар достигнет насыщения.
f - Относительная влажность воздуха - влажноcть воздуха, измеренная на высоте 2 м над землей.
Te - Эффективная температура - температура, которую ощущает одетый по сезону человек в тени. Характеристика душности погоды. При расчете учитывается влияние влажности воздуха и скорости ветра на теплоощущения человека.
Tes - Эффективная температура на солнце - температура, которую ощущает человек, с поправкой на солнечный нагрев. Характеристика знойности погоды. Зависит от высоты солнца над горизонтом, облачности и скорости ветра. Ночью, в пасмурную погоду, а также при ветре 12 м/с и более поправка равна нулю.
P - Атмосферное давление - приведенное к уровню моря атмосферное давление.
Po - Атмосферное давление - измеренное на уровне метеостанции атмосферное давление.
Tmin - Минимальная температура - минимум температуры воздуха на высоте 2 м над землей.
Tmax - Максимальная температура - максимум температуры воздуха на высоте 2 м над землей.
R - Количество осадков - Количество выпавших осадков за 3 или 6 часов, мм.
SD - Снежный покров - Высота снежного покрова, см.